Location: Cheyres
(46.8153°N, 6.7877°E)
Time: 04:20:57
(UTC+00:00)

Cosmos 2369 Rocket - Pass Details

Date: 11 May 2021
Orbit: 827 x 854 km, 71.0° (Epoch: 18 June)

Event Time Altitude Azimuth Distance (km) Brightness Sun altitude
Exits shadow 22:17:23 36° 106° (ESE) 1,300 2.9 -23.1°
Drops below altitude 10° 22:22:28 10° 42° (NE) 2,463 5.0 -23.3°
Sets 22:25:05 0° 34° (NNE) 3,406 5.9 -23.5°
